Location: Kelshall
(52.0000°N, 0.0500°W)
Time: 23:01:16
(UTC+00:00)

NOSS 8 (E) - Pass Details

Date: 18 September 2020
Orbit: 385 x 1787 km, 63.3° (Epoch: 31 October)

Event Time Altitude Azimuth Distance (km) Brightness Sun altitude
Rises 19:08:37 0° 225° (SW) 2,416 8.5 -10.2°
Reaches altitude 10° 19:10:46 10° 225° (SW) 1,471 7.4 -10.5°
Maximum altitude 19:13:53 88° 312° (NW) 394 4.1 -11.0°
Drops below altitude 10° 19:16:56 10° 45° (NE) 1,441 6.7 -11.4°
Enters shadow 19:18:31 - 46° (NE) 2,141 7.6 -11.6°
